Regional Weather Roundup
Issued by NWS

Home | Current Version | Previous Version | Graphics & Text | Print | Product List | Glossary Off
Versions: 1 2 3 4 5 6 7 8 9 10 11 12 13 14 15 16 17 18 19 20 21 22 23 24 25 26 27 28 29 30 31 32 33 34 35 36 37 38 39 40 41 42 43 44 45 46 47 48 49 50

000
ASUS43 KMKX 181011
RWRWI

WISCONSIN REGIONAL WEATHER ROUNDUP
NATIONAL WEATHER SERVICE MILWAUKEE/SULLIVAN WI
500 AM CDT FRI APR 18 2014

NOTE: "FAIR" INDICATES FEW OR NO CLOUDS BELOW 12,000 FEET WITH NO
SIGNIFICANT WEATHER AND/OR OBSTRUCTIONS TO VISIBILITY.

WIZ001-002-006>008-014>016-023>028-181100-
NORTHWEST WISCONSIN

CITY           SKY/WX    TMP DP  RH WIND       PRES   REMARKS
SUPERIOR ARPT  CLOUDY    21  20  95 CALM      30.36R
ASHLAND        MOCLDY    22  21  96 W3        30.35R
HAYWARD        FOG       15  11  83 CALM      30.33R VSB 1/4
SIREN          CLEAR     16  14  92 CALM      30.33F
RICE LAKE      CLEAR     19  18  93 CALM      30.35R
LADYSMITH      FOG       22  20  95 CALM      30.33R VSB 1
EAU CLAIRE     CLEAR     23  19  85 CALM      30.34R
MENOMONIE      SUNNY     26  25  95 CALM      30.34S
NEW RICHMOND   PTCLDY    26  26 100 CALM      30.34R
OSCEOLA        MOCLDY    19  19  99 CALM      30.36S
$$

WIZ003>005-009-010-017-018-181100-
NORTH CENTRAL WISCONSIN

CITY           SKY/WX    TMP DP  RH WIND       PRES   REMARKS
WOODRUFF       CLEAR     19  15  84 CALM      30.29R FOG
RHINELANDER    CLEAR     21  20  96 CALM      30.29R
EAGLE RIVER    FOG       22  21  99 CALM      30.28R VSB 1/4
LAND O LAKES     N/A     21  20  96 CALM      30.28S FOG
PHILLIPS       FOG       16  15  95 CALM      30.29S VSB 1/4
TOMAHAWK       CLEAR     22  21  94 CALM      30.29S
MEDFORD        CLEAR     25  24  93 CALM      30.29S
MERRILL        CLEAR     24  22  96 CALM      30.30S
$$

WIZ029-030-035-036-043>047-181100-
CENTRAL WISCONSIN

CITY           SKY/WX    TMP DP  RH WIND       PRES   REMARKS
WAUSAU         CLEAR     29  24  82 CALM      30.29R
MOSINEE        CLEAR     30  27  86 CALM      30.31R
MARSHFIELD     CLEAR     29  25  85 NW3       30.30R
STEVENS POINT  CLEAR     26  23  86 CALM      30.31S
WAUPACA        CLOUDY    36  27  69 CALM      30.32R
WAUTOMA        CLOUDY    35  28  76 N5        30.32R WCI  31
WISC RAPIDS    CLEAR     29  24  82 CALM      30.32S
CAMP DOUGLAS   PTCLDY    32  27  80 CALM      30.32R
$$

WIZ011>013-019>022-031-037>040-048>050-181100-
NORTHEAST WISCONSIN

CITY           SKY/WX    TMP DP  RH WIND       PRES   REMARKS
ANTIGO         CLEAR     26  23  86 NW3       30.28S
STURGEON BAY   CLOUDY    34  27  75 N9        30.31R WCI  26
GREEN BAY      CLOUDY    36  29  75 NW5       30.31R WCI  32
MANITOWOC      CLOUDY    37  31  78 N8        30.31R WCI  31
APPLETON       CLOUDY    34  28  80 NW7       30.31R WCI  28
CLINTONVILLE   CLOUDY    34  27  75 NW7       30.31S WCI  28
OSHKOSH        CLOUDY    34  28  79 NW5       30.30S WCI  30
$$

WIZ032>034-041-042-053>061-181100-
SOUTHWEST WISCONSIN

CITY           SKY/WX    TMP DP  RH WIND       PRES   REMARKS
LA CROSSE      CLEAR     29  26  89 N5        30.34R WCI  24
SPARTA         CLEAR     25  24  97 CALM      30.35R
VIROQUA        FAIR      29  27  90 N3        30.32R
BOSCOBEL       CLEAR     27  25  92 CALM      30.34R FOG
PRAIRIE DU CHI CLEAR     28  26  92 CALM      30.33R FOG
PLATTEVILLE    FAIR      29  27  91 N6        30.31S WCI  23
$$

WIZ056-057-062-063-064-067-068-181100-
SOUTH CENTRAL WISCONSIN

CITY           SKY/WX    TMP DP  RH WIND       PRES   REMARKS
BARABOO/DELLS  MOCLDY    28  26  96 CALM      30.32R FOG
LONE ROCK      CLEAR     29  27  92 CALM      30.33R
WATERTOWN      MOCLDY    32  30  93 CALM      30.30S
MADISON        CLEAR     27  26  96 CALM      30.32R FOG
MIDDLETON      FAIR      30  29  97 CALM      30.32R
MONROE         CLEAR    N/A N/A N/A N8        30.29R
JANESVILLE     CLEAR     34  32  93 N3        30.29S
$$

WIZ051-052-058>065-066-070>072-181100-
SOUTHEAST WISCONSIN

CITY           SKY/WX    TMP DP  RH WIND       PRES   REMARKS
MILWAUKEE      PTCLDY    38  31  76 N5        30.30R WCI  34
WAUKESHA       MOCLDY    32  32 100 NW3       30.30S
MILWAUKEE/TIMM PTCLDY    34  30  86 N6        30.30S WCI  29
RACINE         CLEAR     37  33  85 N7        30.30R WCI  32
BURLINGTON     CLEAR     33  31  93 N6        30.29S WCI  28
KENOSHA        CLEAR     37  33  85 N7        30.28R WCI  32
FOND DU LAC    PTCLDY    31  28  89 CALM      30.31R
SHEBOYGAN      CLOUDY    36  31  82 NW7       30.30R WCI  30
WEST BEND      CLOUDY    34  30  86 NW3       30.29S
JUNEAU         CLOUDY    32  29  89 N3        30.31R
$$

LSZ147-162-181100-
LAKE SUPERIOR

STATION/POSITION TIME  TEMP    WIND        PRES    WAVE
                       AIR SEA DIR/SP/G            HT/PER
                 (UTC) (F)     (DEG/KT/KT) (MB)    (FT/S)
DEVILS ISLAND    1000   32     330/  9/ 10 1028.3R
PORT WING        0900   25     170/  1/  2 1027.4R
SAXON HARBOR     0900           CALM  /  2 1026.8S
$$

LMZ867-665-643>646-181100-
LAKE MICHIGAN

STATION/POSITION TIME  TEMP    WIND        PRES    WAVE
                       AIR SEA DIR/SP/G            HT/PER
                 (UTC) (F)     (DEG/KT/KT) (MB)    (FT/S)
NORTHPORT PIER   0900   33     300/  5/  9 1025.7R
SISTER BAY       0923   33     350/  7/  7   N/A
KEWAUNEE LAKESHO 0900   37     350/  4/  8 1026.1R
SHEBOYGAN LAKESH 1000   39     340/  8/  9 1026.7R
PORT WASHINGTON  0900   37     310/  5/  7 1026.1S
MILWAUKEE LAKESH 0900   40     330/  6/  9   N/A
KENOSHA   LAKESH 1000   40     340/  8/ 11   N/A
$$

TC  - TEMPERATURE IN CELSIUS
VSB - VISIBILITY IN STATUTE MILES
WCI - WIND CHILL INDEX
HX  - HEAT INDEX




USA.gov is the U.S. government's official web portal to all federal, state and local government web resources and services.